Tracking 19177 objects as of 24-May-2018
HD Live streaming from Space Station
objects crossing your sky now

METEOR 1-12

Track METEOR 1-12 now!
10-day predictions
METEOR 1-12 is classified as:


NORAD ID: 6079
Int'l Code: 1972-049A
Perigee: 881.8 km
Apogee: 898.8 km
Inclination: 81.2 °
Period: 102.6 minutes
Semi major axis: 7261 km
RCS: 4.3297 m2 (large)
Launch date: June 30, 1972
Source: Commonwealth of Independent States (former USSR) (CIS)
Launch site: PLESETSK MISSILE AND SPACE COMPLEX (PKMTR)
aabbcc
Your satellite tracking list
Your tracking list is empty




NASA's NSSDC Master Catalog

Two Line Element Set (TLE):
1  6079U 72049A   18143.42244999 +.00000148 +00000-0 +87238-4 0  9999
2  6079 081.2249 308.8420 0011735 076.5737 283.6737 14.03075601347835
Source of the keplerian elements: AFSPC